Weather in Eugene

United States     44°03′02″N   123°05′29″W
temp.,
°C
wind,
m/s
gust,
m/s
humid.,
%
clouds,
%
prec.,
mm/h
press.,
hPa
HPBL,
m
25 may, wed
wed2523:00+15ssw115286 0.0 101718
02:00+13ssw116178 0.0 101818
05:00+12s116898 0.0 101716
08:00+14se1269100 0.0 1018200
11:00+20wnw1157100 0.0 1016916
14:00+23nw334898 0.0 10151378
17:00+23nw225067 0.0 10131169
20:00+18nw238197 0.0 101260
26 may, thu
thu2623:00+13w0190100 0.0 101312
02:00+11sse0093100 0.0 101310
05:00+10wnw1197100 0.0 101210
08:00+14wsw0083100 0.0 1012208
11:00+20wnw2260100 0.0 1011705
14:00+22nw2451100 0.0 10111335
17:00+14se2292100 1.0 101349
20:00+15s11899 0.3 101311
27 may, fri
fri2723:00+12s2193100 0.3 101427
02:00+12s1192100 0.0 101517
05:00+11w0094100 0.0 101512
08:00+11s1197100 1.3 101672
11:00+12wsw1394100 2.8 1016386
14:00+14sse1290100 1.2 1016383
17:00+15ssw1489100 2.7 1013359
20:00+12ssw1191100 0.8 101320
28 may, sat
sat2823:00+10s1194100 1.2 101216
02:00+9e2398100 1.7 1009107
05:00+9e2399100 3.9 100598
08:00+11ese1497100 3.8 1003210
11:00+12ssw8179189 4.9 10021419
14:00+10sw91597100 1.7 10061255
17:00+9wsw51196100 2.3 10111137
20:00+8wsw3895100 0.8 1013649
29 may, sun
sun2923:00+7sw2796100 1.8 1014351
02:00+8ssw3898100 1.8 1014558
05:00+8wsw3897100 4.2 1014571
08:00+8sw3897100 1.9 1014662
11:00+9sw3797100 4.2 1015476
14:00+10w2595100 2.4 1015706
17:00+11w369486 5.4 1016551
20:00+9wsw279458 1.7 1017196